Location: Poughquag
(41.6090°N, 73.6820°W)
Time: 19:16:36
(UTC-05:00)

Altair - Pass Details

Date: 03 December 2023
Orbit: 1501 x 1682 km, 47.2° (Epoch: 01 March)

Event Time Altitude Azimuth Distance (km) Brightness Sun altitude
Rises 08:48:34 0° 237° (WSW) 4,828 10.0 14.4°
Reaches altitude 10° 08:51:43 10° 237° (WSW) 3,820 9.6 14.8°
Maximum altitude 09:01:25 83° 151° (SSE) 1,573 8.0 15.9°
Drops below altitude 10° 09:10:47 10° 65° (ENE) 3,693 9.7 17.0°
Sets 09:13:47 0° 65° (ENE) 4,662 10.2 17.4°
